Location: Bothwell
(42.3833°S, 147.0000°E)
Time: 04:29:57
(UTC+11:00)

LilacSat-2 - Pass Details

Date: 02 October 2022
Orbit: 504 x 526 km, 97.5° (Epoch: 30 November)

Event Time Altitude Azimuth Distance (km) Brightness Sun altitude
Rises 20:19:57 0° 188° (S) 2,669 ? -11.8°
Reaches altitude 10° 20:22:54 10° 213° (SSW) 1,765 ? -12.4°
Maximum altitude 20:24:53 14° 244° (WSW) 1,525 ? -12.7°
Drops below altitude 10° 20:26:51 10° 276° (W) 1,747 ? -13.0°
Sets 20:29:45 0° 302° (WNW) 2,619 ? -13.6°
